Time,TemperatureF,DewpointF,PressureIn,WindDirection,WindDirectionDegrees,WindSpeedMPH,WindSpeedGustMPH,Humidity,HourlyPrecipIn,Conditions,Clouds,dailyrainin,SolarRadiationWatts/m^2,SoftwareType,DateUTC
2013-03-19 00:14:00,67.1,66.0,30.01,WSW,241,0.0,-999.0,96,-99.99,,,0.00,0,weatherlink.com 1.10,2013-03-19 04:14:00,
2013-03-19 00:29:00,66.9,66.0,30.01,WSW,241,0.0,-999.0,96,-99.99,,,0.01,0,weatherlink.com 1.10,2013-03-19 04:29:00,
2013-03-19 00:44:00,66.8,66.0,30.01,WSW,244,0.0,-999.0,96,-99.99,,,0.01,0,weatherlink.com 1.10,2013-03-19 04:44:00,
2013-03-19 00:59:00,66.8,66.0,30.00,WSW,244,0.0,-999.0,96,-99.99,,,0.02,0,weatherlink.com 1.10,2013-03-19 04:59:00,
2013-03-19 01:14:00,66.7,66.0,30.00,WSW,244,0.0,-999.0,96,-99.99,,,0.02,0,weatherlink.com 1.10,2013-03-19 05:14:00,
2013-03-19 01:29:00,66.8,66.0,30.01,WSW,244,0.0,-999.0,96,-99.99,,,0.02,0,weatherlink.com 1.10,2013-03-19 05:29:00,
2013-03-19 01:44:00,66.7,66.0,30.00,WSW,244,0.0,-999.0,96,-99.99,,,0.02,0,weatherlink.com 1.10,2013-03-19 05:44:00,
2013-03-19 01:59:00,66.6,66.0,29.99,WSW,244,0.0,-999.0,96,-99.99,,,0.02,0,weatherlink.com 1.10,2013-03-19 05:59:00,
2013-03-19 02:14:00,66.5,65.0,29.96,WSW,244,0.0,-999.0,96,-99.99,,,0.02,0,weatherlink.com 1.10,2013-03-19 06:14:00,
2013-03-19 02:29:00,66.3,65.0,29.95,WSW,244,0.0,-999.0,96,-99.99,,,0.02,0,weatherlink.com 1.10,2013-03-19 06:29:00,
2013-03-19 02:44:00,66.4,66.0,29.93,SW,234,0.0,-999.0,97,-99.99,,,0.03,0,weatherlink.com 1.10,2013-03-19 06:44:00,
2013-03-19 02:59:00,66.5,66.0,29.91,SW,232,0.0,-999.0,97,-99.99,,,0.03,0,weatherlink.com 1.10,2013-03-19 06:59:00,
2013-03-19 03:14:00,66.5,66.0,29.91,SSW,196,0.0,-999.0,97,-99.99,,,0.03,0,weatherlink.com 1.10,2013-03-19 07:14:00,
2013-03-19 03:29:00,66.5,66.0,29.90,WNW,284,0.0,-999.0,97,-99.99,,,0.03,0,weatherlink.com 1.10,2013-03-19 07:29:00,
2013-03-19 03:44:00,66.6,66.0,29.89,WSW,238,0.0,-999.0,96,-99.99,,,0.03,0,weatherlink.com 1.10,2013-03-19 07:44:00,
2013-03-19 03:59:00,67.0,66.0,29.89,West,259,4.0,-999.0,96,-99.99,,,0.03,0,weatherlink.com 1.10,2013-03-19 07:59:00,
2013-03-19 04:14:00,67.2,66.0,29.87,WSW,238,2.0,-999.0,96,-99.99,,,0.03,0,weatherlink.com 1.10,2013-03-19 08:14:00,
2013-03-19 04:29:00,67.3,66.0,29.89,WSW,252,1.0,-999.0,96,-99.99,,,0.03,0,weatherlink.com 1.10,2013-03-19 08:29:00,
2013-03-19 04:44:00,67.0,66.0,29.90,SW,219,2.0,-999.0,95,-99.99,,,0.03,0,weatherlink.com 1.10,2013-03-19 08:44:00,
2013-03-19 04:59:00,67.0,65.0,29.90,SW,227,0.0,-999.0,94,-99.99,,,0.03,0,weatherlink.com 1.10,2013-03-19 08:59:00,
2013-03-19 05:14:00,66.9,65.0,29.92,SW,236,0.0,-999.0,94,-99.99,,,0.03,0,weatherlink.com 1.10,2013-03-19 09:14:00,
2013-03-19 05:29:00,66.8,65.0,29.93,SW,236,0.0,-999.0,94,-99.99,,,0.03,0,weatherlink.com 1.10,2013-03-19 09:29:00,
2013-03-19 05:44:00,66.8,65.0,29.92,SSW,209,0.0,-999.0,94,-99.99,,,0.03,0,weatherlink.com 1.10,2013-03-19 09:44:00,
2013-03-19 05:59:00,67.1,65.0,29.94,WSW,237,0.0,-999.0,94,-99.99,,,0.03,0,weatherlink.com 1.10,2013-03-19 09:59:00,
2013-03-19 06:14:00,67.2,66.0,29.95,WSW,245,3.0,-999.0,94,-99.99,,,0.03,0,weatherlink.com 1.10,2013-03-19 10:14:00,
2013-03-19 06:29:00,67.4,66.0,29.96,SW,223,0.0,-999.0,94,-99.99,,,0.03,0,weatherlink.com 1.10,2013-03-19 10:29:00,
2013-03-19 06:44:00,67.3,66.0,29.96,SW,235,0.0,-999.0,94,-99.99,,,0.03,0,weatherlink.com 1.10,2013-03-19 10:44:00,
2013-03-19 06:59:00,67.6,66.0,29.97,WSW,240,1.0,-999.0,93,-99.99,,,0.03,0,weatherlink.com 1.10,2013-03-19 10:59:00,
2013-03-19 07:14:00,67.5,65.0,29.96,SW,234,0.0,-999.0,92,-99.99,,,0.03,0,weatherlink.com 1.10,2013-03-19 11:14:00,
2013-03-19 07:29:00,67.8,65.0,29.97,WSW,248,0.0,-999.0,91,-99.99,,,0.03,0,weatherlink.com 1.10,2013-03-19 11:29:00,
2013-03-19 07:44:00,68.0,65.0,29.97,WSW,250,0.0,-999.0,90,-99.99,,,0.03,5,weatherlink.com 1.10,2013-03-19 11:44:00,
2013-03-19 07:59:00,68.2,65.0,29.97,WSW,246,0.0,-999.0,89,-99.99,,,0.03,11,weatherlink.com 1.10,2013-03-19 11:59:00,
2013-03-19 08:14:00,68.0,65.0,29.95,South,182,0.0,-999.0,90,-99.99,,,0.03,18,weatherlink.com 1.10,2013-03-19 12:14:00,
2013-03-19 08:29:00,67.9,65.0,29.96,SSW,194,0.0,-999.0,91,-99.99,,,0.03,35,weatherlink.com 1.10,2013-03-19 12:29:00,
2013-03-19 08:44:00,68.2,65.0,29.97,SW,229,1.0,-999.0,90,-99.99,,,0.03,56,weatherlink.com 1.10,2013-03-19 12:44:00,
2013-03-19 08:59:00,68.6,65.0,29.96,SW,236,0.0,-999.0,89,-99.99,,,0.03,132,weatherlink.com 1.10,2013-03-19 12:59:00,
2013-03-19 09:14:00,-999.0,-99.9,29.97,North,-999,-999.0,-999.0,-999,-99.99,,,0.03,,weatherlink.com 1.10,2013-03-19 13:14:00,
2013-03-19 09:29:00,-999.0,-99.9,29.98,North,-999,-999.0,-999.0,-999,-99.99,,,0.03,,weatherlink.com 1.10,2013-03-19 13:29:00,
2013-03-19 09:44:00,-999.0,-99.9,29.98,North,-999,-999.0,-999.0,-999,-99.99,,,0.03,,weatherlink.com 1.10,2013-03-19 13:44:00,
2013-03-19 09:59:00,-999.0,-99.9,29.98,North,-999,-999.0,-999.0,-999,-99.99,,,0.03,,weatherlink.com 1.10,2013-03-19 13:59:00,
2013-03-19 10:14:00,-999.0,-99.9,29.98,North,-999,-999.0,-999.0,-999,-99.99,,,0.03,,weatherlink.com 1.10,2013-03-19 14:14:00,
2013-03-19 10:29:00,-999.0,-99.9,29.99,North,-999,-999.0,-999.0,-999,-99.99,,,0.03,,weatherlink.com 1.10,2013-03-19 14:29:00,
2013-03-19 10:44:00,-999.0,-99.9,30.00,North,-999,-999.0,-999.0,-999,-99.99,,,0.03,,weatherlink.com 1.10,2013-03-19 14:44:00,
2013-03-19 10:59:00,-999.0,-99.9,30.00,North,-999,-999.0,-999.0,-999,-99.99,,,0.03,,weatherlink.com 1.10,2013-03-19 14:59:00,
2013-03-19 11:14:00,-999.0,-99.9,30.03,North,-999,-999.0,-999.0,-999,-99.99,,,0.03,,weatherlink.com 1.10,2013-03-19 15:14:00,
2013-03-19 11:29:00,-999.0,-99.9,30.02,North,-999,-999.0,-999.0,-999,-99.99,,,0.03,,weatherlink.com 1.10,2013-03-19 15:29:00,
2013-03-19 11:44:00,-999.0,-99.9,30.00,North,-999,-999.0,-999.0,-999,-99.99,,,0.03,,weatherlink.com 1.10,2013-03-19 15:44:00,
2013-03-19 11:59:00,-999.0,-99.9,30.01,North,-999,-999.0,-999.0,-999,-99.99,,,0.03,,weatherlink.com 1.10,2013-03-19 15:59:00,
2013-03-19 12:14:00,-999.0,-99.9,30.03,North,-999,-999.0,-999.0,-999,-99.99,,,0.03,,weatherlink.com 1.10,2013-03-19 16:14:00,
2013-03-19 12:29:00,-999.0,-99.9,30.03,North,-999,-999.0,-999.0,-999,-99.99,,,0.03,,weatherlink.com 1.10,2013-03-19 16:29:00,
2013-03-19 12:44:00,-999.0,-99.9,30.02,North,-999,-999.0,-999.0,-999,-99.99,,,0.03,,weatherlink.com 1.10,2013-03-19 16:44:00,
2013-03-19 12:59:00,-999.0,-99.9,30.02,North,-999,-999.0,-999.0,-999,-99.99,,,0.03,,weatherlink.com 1.10,2013-03-19 16:59:00,
2013-03-19 13:14:00,-999.0,-99.9,30.02,North,-999,-999.0,-999.0,-999,-99.99,,,0.03,,weatherlink.com 1.10,2013-03-19 17:14:00,
2013-03-19 13:29:00,-999.0,-99.9,30.01,North,-999,-999.0,-999.0,-999,-99.99,,,0.03,,weatherlink.com 1.10,2013-03-19 17:29:00,
2013-03-19 13:44:00,-999.0,-99.9,30.02,North,-999,-999.0,-999.0,-999,-99.99,,,0.03,,weatherlink.com 1.10,2013-03-19 17:44:00,
2013-03-19 13:59:00,-999.0,-99.9,30.00,North,-999,-999.0,-999.0,-999,-99.99,,,0.03,,weatherlink.com 1.10,2013-03-19 17:59:00,
2013-03-19 14:14:00,-999.0,-99.9,30.00,North,-999,-999.0,-999.0,-999,-99.99,,,0.03,,weatherlink.com 1.10,2013-03-19 18:14:00,
2013-03-19 14:29:00,-999.0,-99.9,29.99,North,-999,-999.0,-999.0,-999,-99.99,,,0.03,,weatherlink.com 1.10,2013-03-19 18:29:00,
2013-03-19 14:44:00,-999.0,-99.9,29.98,North,-999,-999.0,-999.0,-999,-99.99,,,0.03,,weatherlink.com 1.10,2013-03-19 18:44:00,
2013-03-19 14:59:00,-999.0,-99.9,29.99,North,-999,-999.0,-999.0,-999,-99.99,,,0.03,,weatherlink.com 1.10,2013-03-19 18:59:00,
2013-03-19 15:14:00,-999.0,-99.9,29.98,North,-999,-999.0,-999.0,-999,-99.99,,,0.03,,weatherlink.com 1.10,2013-03-19 19:14:00,
2013-03-19 15:29:00,77.0,68.0,29.97,SW,232,0.0,-999.0,74,-99.99,,,0.03,761,weatherlink.com 1.10,2013-03-19 19:29:00,
2013-03-19 15:44:00,77.5,68.0,29.97,SW,227,1.0,-999.0,72,-99.99,,,0.03,406,weatherlink.com 1.10,2013-03-19 19:44:00,
2013-03-19 15:59:00,76.2,67.0,29.96,WSW,252,1.0,-999.0,73,-99.99,,,0.03,399,weatherlink.com 1.10,2013-03-19 19:59:00,
2013-03-19 16:14:00,77.0,67.0,29.95,SW,229,1.0,-999.0,72,-99.99,,,0.03,763,weatherlink.com 1.10,2013-03-19 20:14:00,
2013-03-19 16:29:00,77.4,67.0,29.94,WSW,254,0.0,-999.0,70,-99.99,,,0.03,613,weatherlink.com 1.10,2013-03-19 20:29:00,
2013-03-19 16:44:00,76.8,67.0,29.94,West,263,0.0,-999.0,72,-99.99,,,0.03,561,weatherlink.com 1.10,2013-03-19 20:44:00,
2013-03-19 16:59:00,76.4,67.0,29.93,NNW,329,0.0,-999.0,73,-99.99,,,0.03,510,weatherlink.com 1.10,2013-03-19 20:59:00,
2013-03-19 17:14:00,76.6,67.0,29.93,WSW,237,0.0,-999.0,72,-99.99,,,0.03,501,weatherlink.com 1.10,2013-03-19 21:14:00,
2013-03-19 17:29:00,76.3,67.0,29.93,SSW,205,0.0,-999.0,73,-99.99,,,0.03,410,weatherlink.com 1.10,2013-03-19 21:29:00,
2013-03-19 17:44:00,75.5,67.0,29.93,SW,229,2.0,-999.0,74,-99.99,,,0.03,352,weatherlink.com 1.10,2013-03-19 21:44:00,
2013-03-19 17:59:00,74.4,66.0,29.93,WSW,242,2.0,-999.0,76,-99.99,,,0.03,297,weatherlink.com 1.10,2013-03-19 21:59:00,
2013-03-19 18:14:00,74.3,67.0,29.93,SW,229,2.0,-999.0,77,-99.99,,,0.03,250,weatherlink.com 1.10,2013-03-19 22:14:00,
2013-03-19 18:29:00,74.1,66.0,29.93,SW,221,0.0,-999.0,77,-99.99,,,0.03,181,weatherlink.com 1.10,2013-03-19 22:29:00,
2013-03-19 18:44:00,72.2,66.0,29.93,WSW,242,2.0,-999.0,81,-99.99,,,0.03,42,weatherlink.com 1.10,2013-03-19 22:44:00,
2013-03-19 18:59:00,71.2,66.0,29.94,NW,309,1.0,-999.0,83,-99.99,,,0.03,33,weatherlink.com 1.10,2013-03-19 22:59:00,
2013-03-19 19:14:00,70.6,66.0,29.95,WNW,287,0.0,-999.0,85,-99.99,,,0.03,25,weatherlink.com 1.10,2013-03-19 23:14:00,
2013-03-19 19:29:00,70.0,66.0,29.96,WNW,292,0.0,-999.0,86,-99.99,,,0.03,14,weatherlink.com 1.10,2013-03-19 23:29:00,
2013-03-19 19:44:00,69.4,65.0,29.96,WNW,282,0.0,-999.0,87,-99.99,,,0.03,0,weatherlink.com 1.10,2013-03-19 23:44:00,
2013-03-19 19:59:00,68.9,65.0,29.96,WNW,289,0.0,-999.0,88,-99.99,,,0.03,0,weatherlink.com 1.10,2013-03-19 23:59:00,
2013-03-19 20:14:00,68.6,65.0,29.96,WNW,294,0.0,-999.0,89,-99.99,,,0.03,0,weatherlink.com 1.10,2013-03-20 00:14:00,
2013-03-19 20:29:00,68.3,65.0,29.97,WNW,292,0.0,-999.0,90,-99.99,,,0.03,0,weatherlink.com 1.10,2013-03-20 00:29:00,
2013-03-19 20:44:00,68.0,65.0,29.97,WNW,292,0.0,-999.0,90,-99.99,,,0.03,0,weatherlink.com 1.10,2013-03-20 00:44:00,
2013-03-19 20:59:00,67.6,65.0,29.97,WNW,292,0.0,-999.0,91,-99.99,,,0.03,0,weatherlink.com 1.10,2013-03-20 00:59:00,
2013-03-19 21:14:00,67.3,65.0,29.97,WNW,292,0.0,-999.0,91,-99.99,,,0.03,0,weatherlink.com 1.10,2013-03-20 01:14:00,
2013-03-19 21:29:00,66.9,64.0,29.98,WNW,292,0.0,-999.0,91,-99.99,,,0.03,0,weatherlink.com 1.10,2013-03-20 01:29:00,
2013-03-19 21:44:00,66.8,65.0,29.98,WNW,288,0.0,-999.0,92,-99.99,,,0.03,0,weatherlink.com 1.10,2013-03-20 01:44:00,
2013-03-19 21:59:00,-999.0,-99.9,29.98,North,-999,-999.0,-999.0,-999,-99.99,,,0.03,,weatherlink.com 1.10,2013-03-20 01:59:00,
2013-03-19 22:14:00,-999.0,-99.9,29.98,North,-999,-999.0,-999.0,-999,-99.99,,,0.03,,weatherlink.com 1.10,2013-03-20 02:14:00,
2013-03-19 22:29:00,-999.0,-99.9,29.98,North,-999,-999.0,-999.0,-999,-99.99,,,0.03,,weatherlink.com 1.10,2013-03-20 02:29:00,
2013-03-19 22:44:00,-999.0,-99.9,29.98,North,-999,-999.0,-999.0,-999,-99.99,,,0.03,,weatherlink.com 1.10,2013-03-20 02:44:00,
2013-03-19 22:59:00,-999.0,-99.9,29.98,North,-999,-999.0,-999.0,-999,-99.99,,,0.03,,weatherlink.com 1.10,2013-03-20 02:59:00,
2013-03-19 23:14:00,-999.0,-99.9,29.98,North,-999,-999.0,-999.0,-999,-99.99,,,0.03,,weatherlink.com 1.10,2013-03-20 03:14:00,
2013-03-19 23:29:00,-999.0,-99.9,29.98,North,-999,-999.0,-999.0,-999,-99.99,,,0.03,,weatherlink.com 1.10,2013-03-20 03:29:00,
2013-03-19 23:44:00,-999.0,-99.9,29.98,North,-999,-999.0,-999.0,-999,-99.99,,,0.03,,weatherlink.com 1.10,2013-03-20 03:44:00,
2013-03-19 23:59:00,-999.0,-99.9,29.97,North,-999,-999.0,-999.0,-999,-99.99,,,0.03,,weatherlink.com 1.10,2013-03-20 03:59:00,